Location: Evergreen Manor
(41.4083°N, 81.4939°W)
Time: 08:19:16
(UTC+00:00)

Cosmos 1703 Rocket - Pass Details

Date: 11 December 2019
Orbit: 604 x 635 km, 82.5° (Epoch: 27 January)

Event Time Altitude Azimuth Distance (km) Brightness Sun altitude
Exits shadow 11:09:19 31° 292° (WNW) 1,092 4.2 -16.7°
Maximum altitude 11:10:07 34° 269° (W) 1,034 4.2 -16.6°
Drops below altitude 10° 11:14:04 10° 205° (SSW) 1,978 6.1 -15.9°
Sets 11:16:25 0° 196° (SSW) 2,873 7.0 -15.5°
